Time,TemperatureF,DewpointF,PressureIn,WindDirection,WindDirectionDegrees,WindSpeedMPH,WindSpeedGustMPH,Humidity,HourlyPrecipIn,Conditions,Clouds,dailyrainin,SoftwareType,DateUTC
2013-04-01 00:02:00,27.9,20.3,30.25,East,92,0.0,1.0,73,0.00,,,0.00,meteohub,2013-04-01 07:02:00,
2013-04-01 00:12:00,27.7,20.1,30.25,East,92,0.0,1.0,73,0.00,,,0.00,meteohub,2013-04-01 07:12:00,
2013-04-01 00:22:00,27.0,20.5,30.25,East,91,0.0,1.0,76,0.00,,,0.00,meteohub,2013-04-01 07:22:00,
2013-04-01 00:27:00,26.6,20.1,30.25,East,92,0.0,1.0,76,0.00,,,0.00,meteohub,2013-04-01 07:27:00,
2013-04-01 00:32:00,26.2,19.9,30.25,East,92,0.0,1.0,77,0.00,,,0.00,meteohub,2013-04-01 07:32:00,
2013-04-01 00:37:00,26.1,20.1,30.25,East,92,0.0,0.0,78,0.00,,,0.00,meteohub,2013-04-01 07:37:00,
2013-04-01 00:42:00,25.9,20.3,30.26,East,91,0.0,1.0,79,0.00,,,0.00,meteohub,2013-04-01 07:42:00,
2013-04-01 00:47:00,26.1,20.5,30.26,East,91,0.0,1.0,79,0.00,,,0.00,meteohub,2013-04-01 07:47:00,
2013-04-01 00:57:00,26.4,20.1,30.26,East,92,0.0,1.0,77,0.00,,,0.00,meteohub,2013-04-01 07:57:00,
2013-04-01 01:07:00,26.4,20.1,30.26,East,92,0.0,0.0,77,0.00,,,0.00,meteohub,2013-04-01 08:07:00,
2013-04-01 01:17:00,26.1,19.8,30.27,East,91,0.0,1.0,77,0.00,,,0.00,meteohub,2013-04-01 08:17:00,
2013-04-01 01:22:00,25.9,19.9,30.27,East,92,2.0,2.0,78,0.00,,,0.00,meteohub,2013-04-01 08:22:00,
2013-04-01 01:27:00,25.5,19.9,30.27,East,92,0.0,2.0,79,0.00,,,0.00,meteohub,2013-04-01 08:27:00,
2013-04-01 01:32:00,25.5,19.9,30.26,East,92,0.0,2.0,79,0.00,,,0.00,meteohub,2013-04-01 08:32:00,
2013-04-01 01:37:00,25.9,20.3,30.26,East,92,0.0,2.0,79,0.00,,,0.00,meteohub,2013-04-01 08:37:00,
2013-04-01 01:42:00,26.1,20.5,30.26,East,92,0.0,1.0,79,0.00,,,0.00,meteohub,2013-04-01 08:42:00,
2013-04-01 01:52:00,26.4,20.8,30.26,East,91,0.0,1.0,79,0.00,,,0.00,meteohub,2013-04-01 08:52:00,
2013-04-01 01:57:00,26.4,20.8,30.25,East,91,0.0,1.0,79,0.00,,,0.00,meteohub,2013-04-01 08:57:00,
2013-04-01 02:02:00,26.4,20.1,30.25,East,92,0.0,1.0,77,0.00,,,0.00,meteohub,2013-04-01 09:02:00,
2013-04-01 02:07:00,26.6,20.7,30.25,West,277,0.0,2.0,78,0.00,,,0.00,meteohub,2013-04-01 09:07:00,
2013-04-01 02:12:00,26.4,20.5,30.25,West,277,0.0,3.0,78,0.00,,,0.00,meteohub,2013-04-01 09:12:00,
2013-04-01 02:17:00,26.4,20.5,30.25,West,277,0.0,3.0,78,0.00,,,0.00,meteohub,2013-04-01 09:17:00,
2013-04-01 02:22:00,26.4,20.8,30.25,West,277,0.0,3.0,79,0.00,,,0.00,meteohub,2013-04-01 09:22:00,
2013-04-01 02:32:00,26.2,20.8,30.26,West,278,3.0,3.0,80,0.00,,,0.00,meteohub,2013-04-01 09:32:00,
2013-04-01 02:37:00,26.4,21.0,30.27,NW,309,3.0,7.0,80,0.00,,,0.00,meteohub,2013-04-01 09:37:00,
2013-04-01 02:47:00,27.0,21.6,30.26,SSE,162,1.0,7.0,80,0.00,,,0.00,meteohub,2013-04-01 09:47:00,
2013-04-01 02:52:00,26.8,21.7,30.26,South,175,1.0,6.0,81,0.00,,,0.00,meteohub,2013-04-01 09:52:00,
2013-04-01 03:02:00,27.1,21.2,30.27,ESE,119,2.0,5.0,78,0.00,,,0.00,meteohub,2013-04-01 10:02:00,
2013-04-01 03:07:00,28.2,21.4,30.28,SSE,161,2.0,5.0,75,0.00,,,0.00,meteohub,2013-04-01 10:07:00,
2013-04-01 03:17:00,29.7,21.4,30.28,ESE,110,4.0,7.0,71,0.00,,,0.00,meteohub,2013-04-01 10:17:00,
2013-04-01 03:22:00,31.1,21.4,30.27,East,90,6.0,8.0,67,0.00,,,0.00,meteohub,2013-04-01 10:22:00,
2013-04-01 03:27:00,32.2,21.4,30.26,East,79,7.0,9.0,64,0.00,,,0.00,meteohub,2013-04-01 10:27:00,
2013-04-01 03:32:00,33.1,21.6,30.25,SSE,163,3.0,9.0,62,0.00,,,0.00,meteohub,2013-04-01 10:32:00,
2013-04-01 03:37:00,32.4,22.6,30.25,South,174,4.0,9.0,67,0.00,,,0.00,meteohub,2013-04-01 10:37:00,
2013-04-01 03:42:00,32.0,22.6,30.26,SSE,150,0.0,9.0,68,0.00,,,0.00,meteohub,2013-04-01 10:42:00,
2013-04-01 03:47:00,31.6,22.3,30.26,SSE,152,0.0,8.0,68,0.00,,,0.00,meteohub,2013-04-01 10:47:00,
2013-04-01 03:57:00,31.6,21.6,30.25,SSE,149,0.0,3.0,66,0.00,,,0.00,meteohub,2013-04-01 10:57:00,
2013-04-01 04:07:00,31.8,22.5,30.26,SSE,149,0.0,2.0,68,0.00,,,0.00,meteohub,2013-04-01 11:07:00,
2013-04-01 04:12:00,31.6,22.3,30.26,SSE,149,0.0,2.0,68,0.00,,,0.00,meteohub,2013-04-01 11:12:00,
2013-04-01 04:17:00,31.5,22.5,30.26,SSE,149,0.0,0.0,69,0.00,,,0.00,meteohub,2013-04-01 11:17:00,
2013-04-01 04:27:00,31.1,22.8,30.25,South,176,0.0,3.0,71,0.00,,,0.00,meteohub,2013-04-01 11:27:00,
2013-04-01 04:32:00,30.7,22.5,30.26,South,176,0.0,3.0,71,0.00,,,0.00,meteohub,2013-04-01 11:32:00,
2013-04-01 04:42:00,30.4,23.4,30.26,South,176,0.0,1.0,75,0.00,,,0.00,meteohub,2013-04-01 11:42:00,
2013-04-01 04:47:00,30.4,22.8,30.27,South,176,0.0,1.0,73,0.00,,,0.00,meteohub,2013-04-01 11:47:00,
2013-04-01 04:52:00,30.4,22.8,30.28,South,176,0.0,1.0,73,0.00,,,0.00,meteohub,2013-04-01 11:52:00,
2013-04-01 04:57:00,30.6,22.6,30.28,South,175,2.0,2.0,72,0.00,,,0.00,meteohub,2013-04-01 11:57:00,
2013-04-01 05:02:00,30.9,21.9,30.28,ENE,70,2.0,5.0,69,0.00,,,0.00,meteohub,2013-04-01 12:02:00,
2013-04-01 05:12:00,32.9,22.8,30.28,SE,128,2.0,11.0,66,0.00,,,0.00,meteohub,2013-04-01 12:12:00,
2013-04-01 05:17:00,33.8,25.3,30.28,SSE,153,5.0,11.0,71,0.00,,,0.00,meteohub,2013-04-01 12:17:00,
2013-04-01 05:22:00,33.8,26.8,30.27,East,98,5.0,11.0,75,0.00,,,0.00,meteohub,2013-04-01 12:22:00,
2013-04-01 05:32:00,32.7,25.3,30.27,WNW,302,1.0,6.0,74,0.00,,,0.00,meteohub,2013-04-01 12:32:00,
2013-04-01 05:37:00,32.0,25.0,30.26,WNW,302,0.0,6.0,75,0.00,,,0.00,meteohub,2013-04-01 12:37:00,
2013-04-01 05:47:00,31.5,25.3,30.26,NE,44,2.0,2.0,78,0.00,,,0.00,meteohub,2013-04-01 12:47:00,
2013-04-01 05:57:00,30.9,25.5,30.26,NE,44,0.0,3.0,80,0.00,,,0.00,meteohub,2013-04-01 12:57:00,
2013-04-01 06:07:00,30.7,25.3,30.25,NE,50,0.0,3.0,80,0.00,,,0.00,meteohub,2013-04-01 13:07:00,
2013-04-01 06:12:00,30.7,25.3,30.25,NE,50,0.0,3.0,80,0.00,,,0.00,meteohub,2013-04-01 13:12:00,
2013-04-01 06:22:00,30.6,24.8,30.25,NE,50,0.0,3.0,79,0.00,,,0.00,meteohub,2013-04-01 13:22:00,
2013-04-01 06:27:00,30.2,24.8,30.25,NE,50,0.0,1.0,80,0.00,,,0.00,meteohub,2013-04-01 13:27:00,
2013-04-01 06:32:00,29.8,24.8,30.25,NE,50,0.0,1.0,81,0.00,,,0.00,meteohub,2013-04-01 13:32:00,
2013-04-01 06:37:00,29.8,25.0,30.25,NE,50,0.0,1.0,82,0.00,,,0.00,meteohub,2013-04-01 13:37:00,
2013-04-01 06:42:00,29.7,24.8,30.25,NE,50,0.0,0.0,82,0.00,,,0.00,meteohub,2013-04-01 13:42:00,
2013-04-01 06:52:00,29.5,25.2,30.25,NE,50,0.0,0.0,84,0.00,,,0.00,meteohub,2013-04-01 13:52:00,
2013-04-01 06:57:00,29.5,25.2,30.25,NE,50,0.0,0.0,84,0.00,,,0.00,meteohub,2013-04-01 13:57:00,
2013-04-01 07:02:00,29.8,25.5,30.25,NE,50,0.0,0.0,84,0.00,,,0.00,meteohub,2013-04-01 14:02:00,
2013-04-01 07:07:00,30.2,25.7,30.25,NE,50,0.0,1.0,83,0.00,,,0.00,meteohub,2013-04-01 14:07:00,
2013-04-01 07:17:00,31.8,26.6,30.25,NE,50,0.0,1.0,81,0.00,,,0.00,meteohub,2013-04-01 14:17:00,
2013-04-01 07:22:00,32.4,27.0,30.25,NE,50,1.0,1.0,80,0.00,,,0.00,meteohub,2013-04-01 14:22:00,
2013-04-01 07:27:00,32.5,26.8,30.24,NE,50,1.0,2.0,79,0.00,,,0.00,meteohub,2013-04-01 14:27:00,
2013-04-01 07:32:00,33.1,27.0,30.24,NE,50,1.0,2.0,78,0.00,,,0.00,meteohub,2013-04-01 14:32:00,
2013-04-01 07:42:00,34.5,27.5,30.24,NE,50,0.0,2.0,75,0.00,,,0.00,meteohub,2013-04-01 14:42:00,
2013-04-01 07:47:00,35.4,27.7,30.24,NE,50,0.0,2.0,73,0.00,,,0.00,meteohub,2013-04-01 14:47:00,
2013-04-01 07:52:00,36.1,28.4,30.23,NE,50,0.0,1.0,73,0.00,,,0.00,meteohub,2013-04-01 14:52:00,
2013-04-01 07:57:00,36.9,28.4,30.23,NE,50,1.0,1.0,71,0.00,,,0.00,meteohub,2013-04-01 14:57:00,
2013-04-01 08:07:00,37.8,29.1,30.22,NW,313,0.0,3.0,71,0.00,,,0.00,meteohub,2013-04-01 15:07:00,
2013-04-01 08:12:00,37.8,29.1,30.22,NW,313,1.0,3.0,71,0.00,,,0.00,meteohub,2013-04-01 15:12:00,
2013-04-01 08:22:00,38.1,29.5,30.22,NW,313,2.0,3.0,71,0.00,,,0.00,meteohub,2013-04-01 15:22:00,
2013-04-01 08:27:00,38.3,29.7,30.22,NW,304,2.0,5.0,71,0.00,,,0.00,meteohub,2013-04-01 15:27:00,
2013-04-01 08:32:00,38.5,30.2,30.22,NW,306,0.0,5.0,72,0.00,,,0.00,meteohub,2013-04-01 15:32:00,
2013-04-01 08:37:00,39.0,31.1,30.21,NW,313,8.0,8.0,73,0.00,,,0.00,meteohub,2013-04-01 15:37:00,
2013-04-01 08:47:00,39.9,31.3,30.21,NW,307,3.0,9.0,71,0.00,,,0.00,meteohub,2013-04-01 15:47:00,
2013-04-01 08:57:00,40.5,31.1,30.21,WNW,302,6.0,8.0,69,0.00,,,0.00,meteohub,2013-04-01 15:57:00,
2013-04-01 09:02:00,41.0,31.6,30.20,NNE,18,4.0,8.0,69,0.00,,,0.00,meteohub,2013-04-01 16:02:00,
2013-04-01 09:12:00,41.2,31.5,30.20,NW,318,4.0,10.0,68,0.00,,,0.00,meteohub,2013-04-01 16:12:00,
2013-04-01 09:17:00,41.2,30.7,30.20,NW,306,3.0,10.0,66,0.00,,,0.00,meteohub,2013-04-01 16:17:00,
2013-04-01 09:27:00,42.1,31.5,30.19,NW,313,6.0,9.0,66,0.00,,,0.00,meteohub,2013-04-01 16:27:00,
2013-04-01 09:37:00,42.3,30.2,30.19,NW,313,0.0,7.0,62,0.00,,,0.00,meteohub,2013-04-01 16:37:00,
2013-04-01 09:47:00,43.2,31.5,30.17,NW,314,3.0,6.0,63,0.00,,,0.00,meteohub,2013-04-01 16:47:00,
2013-04-01 09:52:00,43.7,32.4,30.17,NW,308,3.0,9.0,64,0.00,,,0.00,meteohub,2013-04-01 16:52:00,
2013-04-01 10:02:00,44.8,32.2,30.16,NW,305,7.0,9.0,61,0.00,,,0.00,meteohub,2013-04-01 17:02:00,
2013-04-01 10:07:00,44.8,32.5,30.16,WNW,284,5.0,9.0,62,0.00,,,0.00,meteohub,2013-04-01 17:07:00,
2013-04-01 10:12:00,45.1,32.0,30.15,WNW,288,3.0,9.0,60,0.00,,,0.00,meteohub,2013-04-01 17:12:00,
2013-04-01 10:22:00,46.2,32.2,30.15,West,263,6.0,7.0,58,0.00,,,0.00,meteohub,2013-04-01 17:22:00,
2013-04-01 10:27:00,46.6,32.2,30.14,WNW,301,6.0,7.0,57,0.00,,,0.00,meteohub,2013-04-01 17:27:00,
2013-04-01 10:32:00,46.6,31.6,30.14,WNW,284,3.0,7.0,56,0.00,,,0.00,meteohub,2013-04-01 17:32:00,
2013-04-01 10:37:00,46.9,32.0,30.13,WSW,253,5.0,8.0,56,0.00,,,0.00,meteohub,2013-04-01 17:37:00,
2013-04-01 10:47:00,47.7,32.4,30.13,West,279,5.0,10.0,55,0.00,,,0.00,meteohub,2013-04-01 17:47:00,
2013-04-01 10:57:00,48.6,31.3,30.12,NW,316,4.0,10.0,51,0.00,,,0.00,meteohub,2013-04-01 17:57:00,
2013-04-01 11:02:00,48.9,31.1,30.12,NW,316,5.0,10.0,50,0.00,,,0.00,meteohub,2013-04-01 18:02:00,
2013-04-01 11:07:00,48.7,30.9,30.12,West,280,3.0,10.0,50,0.00,,,0.00,meteohub,2013-04-01 18:07:00,
2013-04-01 11:12:00,48.7,29.8,30.11,NW,309,6.0,10.0,48,0.00,,,0.00,meteohub,2013-04-01 18:12:00,
2013-04-01 11:17:00,49.3,30.4,30.11,NNW,327,7.0,9.0,48,0.00,,,0.00,meteohub,2013-04-01 18:17:00,
2013-04-01 11:27:00,48.9,28.6,30.10,NW,319,4.0,10.0,45,0.00,,,0.00,meteohub,2013-04-01 18:27:00,
2013-04-01 11:32:00,50.0,30.6,30.09,NW,306,8.0,10.0,47,0.00,,,0.00,meteohub,2013-04-01 18:32:00,
2013-04-01 11:37:00,50.2,28.0,30.09,NNW,329,10.0,12.0,42,0.00,,,0.00,meteohub,2013-04-01 18:37:00,
2013-04-01 11:42:00,49.8,28.8,30.09,NE,39,2.0,12.0,44,0.00,,,0.00,meteohub,2013-04-01 18:42:00,
2013-04-01 11:47:00,50.2,29.7,30.09,North,5,6.0,12.0,45,0.00,,,0.00,meteohub,2013-04-01 18:47:00,
2013-04-01 11:57:00,51.3,28.9,30.09,NW,308,3.0,8.0,42,0.00,,,0.00,meteohub,2013-04-01 18:57:00,
2013-04-01 12:02:00,51.4,29.1,30.08,NW,311,5.0,8.0,42,0.00,,,0.00,meteohub,2013-04-01 19:02:00,
2013-04-01 12:07:00,52.3,29.3,30.08,NW,304,1.0,10.0,41,0.00,,,0.00,meteohub,2013-04-01 19:07:00,
2013-04-01 12:12:00,52.2,27.3,30.08,NE,44,6.0,10.0,38,0.00,,,0.00,meteohub,2013-04-01 19:12:00,
2013-04-01 12:22:00,51.1,25.0,30.07,ESE,116,4.0,8.0,36,0.00,,,0.00,meteohub,2013-04-01 19:22:00,
2013-04-01 12:32:00,51.3,24.6,30.07,East,88,10.0,10.0,35,0.00,,,0.00,meteohub,2013-04-01 19:32:00,
2013-04-01 12:37:00,51.1,25.0,30.06,North,11,3.0,10.0,36,0.00,,,0.00,meteohub,2013-04-01 19:37:00,
2013-04-01 12:42:00,51.3,23.9,30.06,NE,55,1.0,10.0,34,0.00,,,0.00,meteohub,2013-04-01 19:42:00,
2013-04-01 12:47:00,51.6,23.4,30.06,ENE,69,1.0,10.0,33,0.00,,,0.00,meteohub,2013-04-01 19:47:00,
2013-04-01 12:52:00,52.5,25.0,30.05,SE,145,3.0,5.0,34,0.00,,,0.00,meteohub,2013-04-01 19:52:00,
2013-04-01 13:02:00,53.1,23.9,30.05,WSW,257,3.0,10.0,32,0.00,,,0.00,meteohub,2013-04-01 20:02:00,
2013-04-01 13:07:00,53.4,22.8,30.04,NNE,15,4.0,10.0,30,0.00,,,0.00,meteohub,2013-04-01 20:07:00,
2013-04-01 13:17:00,54.5,16.3,30.05,SW,214,8.0,14.0,22,0.00,,,0.00,meteohub,2013-04-01 20:17:00,
2013-04-01 13:22:00,53.8,25.3,30.04,NW,305,10.0,14.0,33,0.00,,,0.00,meteohub,2013-04-01 20:22:00,
2013-04-01 13:27:00,53.2,23.4,30.04,NW,310,8.0,26.0,31,0.00,,,0.00,meteohub,2013-04-01 20:27:00,
2013-04-01 13:37:00,55.0,20.8,30.03,North,9,5.0,26.0,26,0.00,,,0.00,meteohub,2013-04-01 20:37:00,
2013-04-01 13:42:00,54.7,19.6,30.03,NE,55,3.0,12.0,25,0.00,,,0.00,meteohub,2013-04-01 20:42:00,
2013-04-01 13:47:00,54.9,21.6,30.04,WNW,284,9.0,12.0,27,0.00,,,0.00,meteohub,2013-04-01 20:47:00,
2013-04-01 13:52:00,55.0,22.5,30.04,NNW,329,6.0,13.0,28,0.00,,,0.00,meteohub,2013-04-01 20:52:00,
2013-04-01 13:57:00,54.5,23.7,30.04,WNW,303,6.0,13.0,30,0.00,,,0.00,meteohub,2013-04-01 20:57:00,
2013-04-01 14:02:00,53.4,22.8,30.04,NW,321,6.0,13.0,30,0.00,,,0.00,meteohub,2013-04-01 21:02:00,
2013-04-01 14:07:00,53.2,24.8,30.04,West,277,8.0,12.0,33,0.00,,,0.00,meteohub,2013-04-01 21:07:00,
2013-04-01 14:17:00,54.9,22.3,30.04,NNE,27,4.0,15.0,28,0.00,,,0.00,meteohub,2013-04-01 21:17:00,
2013-04-01 14:22:00,54.5,22.8,30.03,NW,306,8.0,15.0,29,0.00,,,0.00,meteohub,2013-04-01 21:22:00,
2013-04-01 14:27:00,54.7,25.3,30.03,North,5,7.0,13.0,32,0.00,,,0.00,meteohub,2013-04-01 21:27:00,
2013-04-01 14:32:00,54.0,21.6,30.04,NW,304,4.0,13.0,28,0.00,,,0.00,meteohub,2013-04-01 21:32:00,
2013-04-01 14:37:00,52.9,22.3,30.03,NW,316,4.0,13.0,30,0.00,,,0.00,meteohub,2013-04-01 21:37:00,
2013-04-01 14:42:00,52.5,20.3,30.03,NW,304,4.0,11.0,28,0.00,,,0.00,meteohub,2013-04-01 21:42:00,
2013-04-01 14:47:00,53.1,20.8,30.03,NNW,336,3.0,11.0,28,0.00,,,0.00,meteohub,2013-04-01 21:47:00,
2013-04-01 14:57:00,54.0,21.6,30.03,North,355,1.0,8.0,28,0.00,,,0.00,meteohub,2013-04-01 21:57:00,
2013-04-01 15:02:00,54.3,20.1,30.03,WNW,302,3.0,9.0,26,0.00,,,0.00,meteohub,2013-04-01 22:02:00,
2013-04-01 15:12:00,53.4,19.4,30.03,WSW,254,3.0,11.0,26,0.00,,,0.00,meteohub,2013-04-01 22:12:00,
2013-04-01 15:17:00,53.1,19.9,30.03,SW,234,0.0,10.0,27,0.00,,,0.00,meteohub,2013-04-01 22:17:00,
2013-04-01 15:27:00,53.2,20.1,30.02,SSW,201,0.0,9.0,27,0.00,,,0.00,meteohub,2013-04-01 22:27:00,
2013-04-01 15:32:00,53.6,20.5,30.02,SE,136,2.0,4.0,27,0.00,,,0.00,meteohub,2013-04-01 22:32:00,
2013-04-01 15:37:00,54.1,19.9,30.01,NW,311,4.0,6.0,26,0.00,,,0.00,meteohub,2013-04-01 22:37:00,
2013-04-01 15:42:00,53.8,19.8,30.01,NNW,338,0.0,9.0,26,0.00,,,0.00,meteohub,2013-04-01 22:42:00,
2013-04-01 15:52:00,53.2,19.2,30.01,North,350,2.0,9.0,26,0.00,,,0.00,meteohub,2013-04-01 22:52:00,
2013-04-01 15:57:00,53.1,19.9,30.01,NW,311,2.0,8.0,27,0.00,,,0.00,meteohub,2013-04-01 22:57:00,
2013-04-01 16:02:00,52.7,18.7,30.01,NW,313,5.0,9.0,26,0.00,,,0.00,meteohub,2013-04-01 23:02:00,
2013-04-01 16:07:00,52.5,17.8,30.01,NNE,29,4.0,9.0,25,0.00,,,0.00,meteohub,2013-04-01 23:07:00,
2013-04-01 16:17:00,52.2,18.3,30.01,NW,323,4.0,11.0,26,0.00,,,0.00,meteohub,2013-04-01 23:17:00,
2013-04-01 16:27:00,52.3,18.5,30.01,NW,309,3.0,7.0,26,0.00,,,0.00,meteohub,2013-04-01 23:27:00,
2013-04-01 16:37:00,52.3,17.6,30.01,NW,318,3.0,8.0,25,0.00,,,0.00,meteohub,2013-04-01 23:37:00,
2013-04-01 16:42:00,52.5,18.7,30.01,NW,315,5.0,8.0,26,0.00,,,0.00,meteohub,2013-04-01 23:42:00,
2013-04-01 16:47:00,53.1,17.2,30.02,WNW,293,2.0,8.0,24,0.00,,,0.00,meteohub,2013-04-01 23:47:00,
2013-04-01 16:52:00,53.4,16.5,30.01,WSW,242,2.0,7.0,23,0.00,,,0.00,meteohub,2013-04-01 23:52:00,
2013-04-01 17:02:00,54.3,18.3,30.01,SSE,165,0.0,5.0,24,0.00,,,0.00,meteohub,2013-04-02 00:02:00,
2013-04-01 17:12:00,54.9,18.7,30.01,South,185,0.0,5.0,24,0.00,,,0.00,meteohub,2013-04-02 00:12:00,
2013-04-01 17:22:00,54.9,17.8,30.01,South,185,1.0,5.0,23,0.00,,,0.00,meteohub,2013-04-02 00:22:00,
2013-04-01 17:27:00,55.0,16.9,30.01,WNW,296,5.0,5.0,22,0.00,,,0.00,meteohub,2013-04-02 00:27:00,
2013-04-01 17:32:00,54.5,14.2,30.02,WNW,294,7.0,7.0,20,0.00,,,0.00,meteohub,2013-04-02 00:32:00,
2013-04-01 17:42:00,52.5,15.8,30.02,WNW,296,4.0,15.0,23,0.00,,,0.00,meteohub,2013-04-02 00:42:00,
2013-04-01 17:47:00,52.2,14.4,30.02,West,275,3.0,15.0,22,0.00,,,0.00,meteohub,2013-04-02 00:47:00,
2013-04-01 17:57:00,51.4,17.6,30.02,NW,314,0.0,11.0,26,0.00,,,0.00,meteohub,2013-04-02 00:57:00,
2013-04-01 18:02:00,51.4,14.9,30.02,NW,313,0.0,6.0,23,0.00,,,0.00,meteohub,2013-04-02 01:02:00,
2013-04-01 18:12:00,50.5,16.9,30.02,NW,306,3.0,3.0,26,0.00,,,0.00,meteohub,2013-04-02 01:12:00,
2013-04-01 18:17:00,50.2,16.5,30.02,NW,309,4.0,5.0,26,0.00,,,0.00,meteohub,2013-04-02 01:17:00,
2013-04-01 18:27:00,49.5,16.9,30.03,NW,316,3.0,7.0,27,0.00,,,0.00,meteohub,2013-04-02 01:27:00,
2013-04-01 18:32:00,49.3,15.8,30.03,NW,316,3.0,7.0,26,0.00,,,0.00,meteohub,2013-04-02 01:32:00,
2013-04-01 18:37:00,48.9,16.3,30.03,West,280,0.0,7.0,27,0.00,,,0.00,meteohub,2013-04-02 01:37:00,
2013-04-01 18:42:00,48.6,16.2,30.04,SW,228,1.0,7.0,27,0.00,,,0.00,meteohub,2013-04-02 01:42:00,
2013-04-01 18:47:00,47.8,18.7,30.03,SSW,193,0.0,7.0,31,0.00,,,0.00,meteohub,2013-04-02 01:47:00,
2013-04-01 18:52:00,46.9,18.7,30.03,South,169,1.0,5.0,32,0.00,,,0.00,meteohub,2013-04-02 01:52:00,
2013-04-01 18:57:00,46.2,18.7,30.03,SSE,165,0.0,5.0,33,0.00,,,0.00,meteohub,2013-04-02 01:57:00,
2013-04-01 19:02:00,45.1,19.8,30.04,SSE,165,1.0,4.0,36,0.00,,,0.00,meteohub,2013-04-02 02:02:00,
2013-04-01 19:12:00,43.5,19.6,30.04,SSE,165,0.0,3.0,38,0.00,,,0.00,meteohub,2013-04-02 02:12:00,
2013-04-01 19:17:00,43.2,17.4,30.04,SSE,165,0.0,3.0,35,0.00,,,0.00,meteohub,2013-04-02 02:17:00,
2013-04-01 19:22:00,43.2,19.9,30.04,SE,145,1.0,1.0,39,0.00,,,0.00,meteohub,2013-04-02 02:22:00,
2013-04-01 19:27:00,43.2,19.9,30.04,SE,145,1.0,4.0,39,0.00,,,0.00,meteohub,2013-04-02 02:27:00,
2013-04-01 19:32:00,42.4,20.5,30.04,SE,145,0.0,4.0,41,0.00,,,0.00,meteohub,2013-04-02 02:32:00,
2013-04-01 19:37:00,41.9,21.0,30.05,SE,145,0.0,3.0,43,0.00,,,0.00,meteohub,2013-04-02 02:37:00,
2013-04-01 19:42:00,41.7,19.8,30.05,SE,145,0.0,3.0,41,0.00,,,0.00,meteohub,2013-04-02 02:42:00,
2013-04-01 19:47:00,41.5,20.7,30.06,SE,145,0.0,3.0,43,0.00,,,0.00,meteohub,2013-04-02 02:47:00,
2013-04-01 19:52:00,42.1,19.6,30.06,North,355,4.0,4.0,40,0.00,,,0.00,meteohub,2013-04-02 02:52:00,
2013-04-01 19:57:00,43.9,21.2,30.06,NE,51,3.0,7.0,40,0.00,,,0.00,meteohub,2013-04-02 02:57:00,
2013-04-01 20:02:00,44.6,20.5,30.06,NE,45,3.0,7.0,38,0.00,,,0.00,meteohub,2013-04-02 03:02:00,
2013-04-01 20:12:00,44.2,22.1,30.07,SW,218,0.0,6.0,41,0.00,,,0.00,meteohub,2013-04-02 03:12:00,
2013-04-01 20:17:00,42.6,21.2,30.06,ESE,114,3.0,5.0,42,0.00,,,0.00,meteohub,2013-04-02 03:17:00,
2013-04-01 20:22:00,42.1,21.2,30.07,SSE,153,1.0,4.0,43,0.00,,,0.00,meteohub,2013-04-02 03:22:00,
2013-04-01 20:27:00,41.4,21.0,30.07,SSE,149,0.0,4.0,44,0.00,,,0.00,meteohub,2013-04-02 03:27:00,
2013-04-01 20:32:00,40.1,21.9,30.07,South,173,2.0,4.0,48,0.00,,,0.00,meteohub,2013-04-02 03:32:00,
2013-04-01 20:37:00,38.7,21.6,30.07,South,173,2.0,4.0,50,0.00,,,0.00,meteohub,2013-04-02 03:37:00,
2013-04-01 20:42:00,38.5,21.0,30.07,SSE,155,1.0,4.0,49,0.00,,,0.00,meteohub,2013-04-02 03:42:00,
2013-04-01 20:47:00,38.5,21.4,30.08,SSE,154,0.0,4.0,50,0.00,,,0.00,meteohub,2013-04-02 03:47:00,
2013-04-01 20:52:00,38.7,21.6,30.07,SSE,159,1.0,5.0,50,0.00,,,0.00,meteohub,2013-04-02 03:52:00,
2013-04-01 21:02:00,36.7,22.5,30.07,SSE,165,0.0,4.0,56,0.00,,,0.00,meteohub,2013-04-02 04:02:00,
2013-04-01 21:12:00,36.3,22.1,30.07,SSE,165,1.0,3.0,56,0.00,,,0.00,meteohub,2013-04-02 04:12:00,
2013-04-01 21:17:00,36.3,22.1,30.07,SSE,165,0.0,1.0,56,0.00,,,0.00,meteohub,2013-04-02 04:17:00,
2013-04-01 21:22:00,36.0,22.3,30.07,SSE,165,0.0,1.0,57,0.00,,,0.00,meteohub,2013-04-02 04:22:00,
2013-04-01 21:27:00,35.8,22.1,30.07,SSE,165,0.0,1.0,57,0.00,,,0.00,meteohub,2013-04-02 04:27:00,
2013-04-01 21:32:00,35.4,21.2,30.07,SSE,165,1.0,1.0,56,0.00,,,0.00,meteohub,2013-04-02 04:32:00,
2013-04-01 21:37:00,36.0,21.4,30.07,SSE,160,1.0,2.0,55,0.00,,,0.00,meteohub,2013-04-02 04:37:00,
2013-04-01 21:42:00,36.1,21.9,30.07,SSE,160,0.0,4.0,56,0.00,,,0.00,meteohub,2013-04-02 04:42:00,
2013-04-01 21:47:00,36.0,21.4,30.07,SSE,160,3.0,4.0,55,0.00,,,0.00,meteohub,2013-04-02 04:47:00,
2013-04-01 21:52:00,35.6,22.3,30.07,SSE,160,0.0,4.0,58,0.00,,,0.00,meteohub,2013-04-02 04:52:00,
2013-04-01 21:57:00,34.5,22.1,30.07,SSE,160,2.0,4.0,60,0.00,,,0.00,meteohub,2013-04-02 04:57:00,
2013-04-01 22:07:00,34.0,21.9,30.06,SSE,161,0.0,3.0,61,0.00,,,0.00,meteohub,2013-04-02 05:07:00,
2013-04-01 22:12:00,34.0,20.8,30.06,SSE,159,2.0,4.0,58,0.00,,,0.00,meteohub,2013-04-02 05:12:00,
2013-04-01 22:22:00,33.4,21.0,30.07,NW,307,0.0,4.0,60,0.00,,,0.00,meteohub,2013-04-02 05:22:00,
2013-04-01 22:27:00,32.9,21.4,30.07,NW,307,0.0,4.0,62,0.00,,,0.00,meteohub,2013-04-02 05:27:00,
2013-04-01 22:32:00,32.7,21.2,30.06,ESE,106,2.0,4.0,62,0.00,,,0.00,meteohub,2013-04-02 05:32:00,
2013-04-01 22:37:00,33.1,20.3,30.06,ESE,107,2.0,3.0,59,0.00,,,0.00,meteohub,2013-04-02 05:37:00,
2013-04-01 22:42:00,34.3,20.7,30.06,South,180,4.0,9.0,57,0.00,,,0.00,meteohub,2013-04-02 05:42:00,
2013-04-01 22:47:00,34.3,20.3,30.06,East,98,5.0,9.0,56,0.00,,,0.00,meteohub,2013-04-02 05:47:00,
2013-04-01 22:52:00,35.2,19.4,30.06,ESE,105,5.0,9.0,52,0.00,,,0.00,meteohub,2013-04-02 05:52:00,
2013-04-01 22:57:00,36.5,19.6,30.06,East,94,3.0,9.0,50,0.00,,,0.00,meteohub,2013-04-02 05:57:00,
2013-04-01 23:02:00,37.2,18.9,30.05,ESE,103,5.0,10.0,47,0.00,,,0.00,meteohub,2013-04-02 06:02:00,
2013-04-01 23:12:00,36.9,19.9,30.06,South,175,1.0,9.0,50,0.00,,,0.00,meteohub,2013-04-02 06:12:00,
2013-04-01 23:17:00,35.8,19.0,30.05,ESE,109,2.0,9.0,50,0.00,,,0.00,meteohub,2013-04-02 06:17:00,
2013-04-01 23:22:00,35.2,19.8,30.05,SSE,159,2.0,8.0,53,0.00,,,0.00,meteohub,2013-04-02 06:22:00,
2013-04-01 23:27:00,34.3,19.4,30.05,SSE,159,1.0,7.0,54,0.00,,,0.00,meteohub,2013-04-02 06:27:00,
2013-04-01 23:32:00,34.0,19.0,30.06,South,178,4.0,7.0,54,0.00,,,0.00,meteohub,2013-04-02 06:32:00,
2013-04-01 23:37:00,33.6,20.5,30.06,West,261,2.0,6.0,58,0.00,,,0.00,meteohub,2013-04-02 06:37:00,
2013-04-01 23:42:00,33.3,20.5,30.06,NE,48,0.0,6.0,59,0.00,,,0.00,meteohub,2013-04-02 06:42:00,
2013-04-01 23:52:00,32.5,20.1,30.06,NW,324,0.0,4.0,60,0.00,,,0.00,meteohub,2013-04-02 06:52:00,
2013-04-01 23:57:00,32.4,20.8,30.06,NW,324,0.0,3.0,62,0.00,,,0.00,meteohub,2013-04-02 06:57:00,